TimePST,TemperatureF,Dew PointF,Humidity,Sea Level PressureIn,VisibilityMPH,Wind Direction,Wind SpeedMPH,Gust SpeedMPH,PrecipitationIn,Events,Conditions,WindDirDegrees,DateUTC
12:00 AM,46.4,41.0,81,30.04,20.0,West,12.7,-,N/A,,Mostly Cloudy,280,2013-11-15 08:00:00
1:00 AM,46.4,41.0,81,30.03,20.0,WSW,12.7,18.4,N/A,,Overcast,250,2013-11-15 09:00:00
2:00 AM,46.4,41.0,81,-9999,20.0,WSW,11.5,-,N/A,,Overcast,240,2013-11-15 10:00:00
3:00 AM,46.4,41.0,81,-9999,20.0,SW,9.2,-,N/A,,Overcast,220,2013-11-15 11:00:00
4:00 AM,46,41,75,29.97,19,SW,6.9,,,,Overcast,230,2013-11-15 12:00:00
4:00 AM,46.4,41.0,81,29.97,20.0,WSW,5.8,-,N/A,,Overcast,240,2013-11-15 12:00:00
5:00 AM,46.4,41.0,81,29.94,20.0,SSW,6.9,-,N/A,,Overcast,200,2013-11-15 13:00:00
5:17 AM,46.4,41.0,81,29.94,15.0,SW,6.9,-,N/A,Rain,Light Rain,230,2013-11-15 13:17:00
6:00 AM,44.6,39.2,81,-9999,12.0,West,5.8,-,N/A,Rain,Light Rain,270,2013-11-15 14:00:00
7:00 AM,42.8,39.2,87,29.88,12.0,North,6.9,-,N/A,Rain,Light Rain,360,2013-11-15 15:00:00
7:25 AM,42.8,39.2,87,29.88,15.0,NNE,4.6,-,N/A,,Overcast,20,2013-11-15 15:25:00
8:00 AM,42.8,39.2,87,29.87,15.0,Calm,Calm,-,N/A,,Overcast,0,2013-11-15 16:00:00
9:00 AM,44.6,39.2,81,-9999,15.0,ESE,5.8,-,N/A,,Overcast,120,2013-11-15 17:00:00
10:00 AM,44,40,83,29.82,15,ESE,6.9,,,,Partly Cloudy,110,2013-11-15 18:00:00
10:00 AM,44.6,41.0,87,29.82,15.0,ESE,5.8,-,N/A,,Overcast,120,2013-11-15 18:00:00
10:08 AM,44.6,41.0,87,29.82,12.0,ESE,5.8,-,N/A,Rain,Light Rain,110,2013-11-15 18:08:00
11:00 AM,44.6,41.0,87,29.78,12.0,ESE,6.9,-,N/A,Rain,Light Rain,120,2013-11-15 19:00:00
12:00 PM,44.6,42.8,93,29.71,12.0,SSE,11.5,-,N/A,Rain,Light Rain,160,2013-11-15 20:00:00
1:00 PM,44.6,42.8,93,29.65,10.0,SSE,11.5,-,N/A,Rain,Light Rain,160,2013-11-15 21:00:00
2:00 PM,44.6,41.0,87,29.60,10.0,SSE,20.7,26.5,N/A,Rain,Light Rain,160,2013-11-15 22:00:00
2:19 PM,44.6,41.0,87,29.58,8.0,SSE,19.6,29.9,N/A,Rain,Rain,160,2013-11-15 22:19:00
2:35 PM,42.8,42.8,100,29.57,8.0,SSE,19.6,-,N/A,Rain,Rain,150,2013-11-15 22:35:00
3:00 PM,44.6,41.0,87,29.54,8.0,SSE,20.7,26.5,N/A,Rain,Rain,150,2013-11-15 23:00:00
4:00 PM,44,42,92,29.49,7,SE,17.3,,,Rain,Rain,140,2013-11-16 00:00:00
4:00 PM,44.6,42.8,93,29.48,8.0,SE,16.1,24.2,N/A,Rain,Rain,140,2013-11-16 00:00:00
4:29 PM,44.6,42.8,93,29.44,10.0,SSE,18.4,24.2,N/A,Rain,Light Rain,150,2013-11-16 00:29:00
5:00 PM,44.6,42.8,93,-9999,12.0,SSE,16.1,-,N/A,Rain,Light Rain Showers,150,2013-11-16 01:00:00
5:28 PM,44.6,42.8,93,29.38,12.0,SE,13.8,20.7,N/A,,Overcast,140,2013-11-16 01:28:00
6:00 PM,46.4,44.6,93,29.36,15.0,SE,13.8,19.6,N/A,,Overcast,140,2013-11-16 02:00:00
7:00 PM,48.2,44.6,87,29.31,15.0,SSE,11.5,17.3,N/A,,Overcast,160,2013-11-16 03:00:00
7:32 PM,46.4,44.6,93,29.29,12.0,SSE,15.0,24.2,N/A,Rain,Light Rain,160,2013-11-16 03:32:00
7:42 PM,46.4,44.6,93,29.27,15.0,SSE,9.2,19.6,N/A,,Overcast,160,2013-11-16 03:42:00
8:00 PM,44.6,42.8,93,29.27,15.0,NW,4.6,-,N/A,,Overcast,320,2013-11-16 04:00:00
8:20 PM,46.4,42.8,87,29.25,15.0,NW,4.6,21.9,N/A,,Overcast,310,2013-11-16 04:20:00
8:37 PM,44.6,41.0,87,29.25,12.0,Variable,33.4,46.0,N/A,Rain,Light Rain,0,2013-11-16 04:37:00
8:43 PM,42.8,39.2,87,29.27,10.0,NNW,27.6,46.0,N/A,Rain,Rain,340,2013-11-16 04:43:00
9:00 PM,42.8,41.0,93,29.26,15.0,NNW,8.1,29.9,N/A,Rain,Light Rain,340,2013-11-16 05:00:00
9:09 PM,42.8,41.0,93,29.26,15.0,WNW,9.2,-,N/A,,Mostly Cloudy,300,2013-11-16 05:09:00
10:00 PM,45,40,78,29.28,15,West,29.9,,,Rain,Light Rain,280,2013-11-16 06:00:00
10:00 PM,44.6,41.0,87,29.27,15.0,West,29.9,36.8,N/A,,Mostly Cloudy,280,2013-11-16 06:00:00
11:00 PM,44.6,37.4,76,29.28,15.0,WNW,36.8,-,N/A,,Partly Cloudy,290,2013-11-16 07:00:00